| time (UTC) | temp C | wind direction | speed KPH | gust KPH | rain 1hr cm | rain 24hr cm | rain mn cm | humidity % | barometer mb |
| 20260506121918 | 16 | 267 | 0.0 | 3.2 | 0.00 | 0.00 | 0.00 | 83 | 1009.1 |
| 20260506120937 | 16 | 133 | 0.0 | 3.2 | 0.00 | 0.00 | 0.00 | 83 | 1009.5 |
| 20260506115950 | 16 | 53 | 0.0 | 3.2 | 0.00 | 0.00 | 0.00 | 84 | 1009.4 |
| 20260506114956 | 16 | 143 | 0.0 | 4.8 | 0.00 | 0.00 | 0.00 | 84 | 1009.3 |
| 20260506113943 | 16 | 115 | 0.0 | 4.8 | 0.00 | 0.00 | 0.00 | 85 | 1009.3 |
| 20260506112943 | 16 | 155 | 0.0 | 4.8 | 0.00 | 0.00 | 0.00 | 85 | 1009.2 |
| 20260506111952 | 15 | 201 | 0.0 | 4.8 | 0.00 | 0.00 | 0.00 | 86 | 1009.3 |
| 20260506104651 | 15 | 129 | 0.0 | 3.2 | 0.00 | 0.00 | 0.00 | 86 | 1009.6 |
| 20260506103716 | 15 | 240 | 0.0 | 1.6 | 0.00 | 0.00 | 0.00 | 87 | 1009.4 |
| 20260506102730 | 15 | 256 | 0.0 | 1.6 | 0.00 | 0.00 | 0.00 | 87 | 1009.2 |
| 20260506101701 | 15 | 142 | 0.0 | 4.8 | 0.00 | 0.00 | 0.00 | 88 | 1009.1 |
| 20260506100724 | 15 | 143 | 0.0 | 3.2 | 0.00 | 0.00 | 0.00 | 88 | 1009.3 |
| 20260506095702 | 15 | 115 | 0.0 | 1.6 | 0.00 | 0.00 | 0.00 | 88 | 1009.2 |
| 20260506094630 | 15 | 221 | 0.0 | 3.2 | 0.00 | 0.00 | 0.00 | 87 | 1009.1 |
| 20260506093612 | 15 | 197 | 0.0 | 1.6 | 0.00 | 0.00 | 0.00 | 88 | 1009.1 |
| 20260506092552 | 14 | 149 | 0.0 | 0.0 | 0.00 | 0.00 | 0.00 | 87 | 1009.2 |
| 20260506091533 | 15 | 245 | 0.0 | 0.0 | 0.00 | 0.00 | 0.00 | 87 | 1009.2 |
| 20260506085403 | 15 | 191 | 0.0 | 1.6 | 0.00 | 0.00 | 0.00 | 86 | 1009.4 |
| 20260506084330 | 15 | 307 | 0.0 | 0.0 | 0.00 | 0.00 | 0.00 | 86 | 1009.4 |
| 20260506083301 | 15 | 273 | 0.0 | 1.6 | 0.00 | 0.00 | 0.00 | 86 | 1009.6 |
| 20260506082323 | 14 | 142 | 0.0 | 0.0 | 0.00 | 0.00 | 0.00 | 85 | 1009.5 |
| 20260506081332 | 15 | 145 | 0.0 | 0.0 | 0.00 | 0.00 | 0.00 | 85 | 1009.6 |
| 20260506080319 | 15 | 189 | 0.0 | 0.0 | 0.00 | 0.00 | 0.00 | 84 | 1009.6 |
| 20260506072124 | 15 | 141 | 0.0 | 0.0 | 0.00 | 0.00 | 0.00 | 82 | 1009.7 |
| 20260506061834 | 15 | 131 | 0.0 | 0.0 | 0.00 | 0.00 | 0.00 | 79 | 1009.6 |
| 20260506050322 | 17 | 135 | 0.0 | 1.6 | 0.00 | 0.00 | 0.00 | 73 | 1010.0 |
| 20260506043227 | 17 | 150 | 0.0 | 1.6 | 0.00 | 0.00 | 0.00 | 72 | 1010.1 |
| 20260506042200 | 17 | 136 | 0.0 | 3.2 | 0.00 | 0.00 | 0.00 | 71 | 1010.0 |
| 20260506041141 | 17 | 185 | 0.0 | 6.4 | 0.00 | 0.00 | 0.00 | 70 | 1010.1 |
| 20260506040203 | 17 | 190 | 0.0 | 1.6 | 0.00 | 0.00 | 0.00 | 70 | 1010.0 |
| 20260506035138 | 18 | 107 | 0.0 | 4.8 | 0.00 | 0.00 | 0.00 | 69 | 1010.0 |
| 20260506034203 | 18 | 223 | 0.0 | 4.8 | 0.00 | 0.00 | 0.00 | 69 | 1010.0 |
| 20260506032037 | 18 | 128 | 0.0 | 3.2 | 0.00 | 0.00 | 0.00 | 68 | 1010.0 |
| 20260506031052 | 18 | 139 | 0.0 | 6.4 | 0.00 | 0.00 | 0.00 | 68 | 1009.8 |
| 20260506024845 | 18 | 146 | 0.0 | 4.8 | 0.00 | 0.00 | 0.00 | 68 | 1009.8 |
| 20260506022713 | 18 | 121 | 0.0 | 4.8 | 0.00 | 0.00 | 0.00 | 67 | 1009.8 |
| 20260506015446 | 18 | 145 | 0.0 | 9.7 | 0.00 | 0.00 | 0.00 | 65 | 1009.8 |
| 20260506014438 | 19 | 151 | 1.6 | 9.7 | 0.00 | 0.00 | 0.00 | 65 | 1009.7 |
| 20260506013419 | 19 | 257 | 0.0 | 4.8 | 0.00 | 0.00 | 0.00 | 64 | 1009.6 |
| 20260506012402 | 19 | 150 | 0.0 | 4.8 | 0.00 | 0.00 | 0.00 | 64 | 1009.4 |
| 20260506011422 | 20 | 144 | 0.0 | 4.8 | 0.00 | 0.00 | 0.00 | 63 | 1009.3 |
| 20260506010435 | 20 | 123 | 0.0 | 0.0 | 0.00 | 0.00 | 0.00 | 62 | 1009.2 |
| 20260506005420 | 20 | 140 | 0.0 | 0.0 | 0.00 | 0.00 | 0.00 | 61 | 1008.9 |
| 20260506004409 | 20 | 141 | 0.0 | 1.6 | 0.00 | 0.00 | 0.00 | 61 | 1009.0 |
| 20260506000028 | 20 | 155 | 0.0 | 1.6 | 0.00 | 0.00 | 0.00 | 61 | 1008.4 |
| 20260505235046 | 20 | 155 | 0.0 | 1.6 | 0.00 | 0.00 | 0.00 | 61 | 1008.3 |
| 20260505234041 | 21 | 136 | 0.0 | 1.6 | 0.00 | 0.00 | 0.00 | 60 | 1008.1 |
| 20260505231931 | 21 | 134 | 0.0 | 6.4 | 0.00 | 0.00 | 0.00 | 58 | 1007.9 |
| 20260505230940 | 21 | 173 | 0.0 | 6.4 | 0.00 | 0.00 | 0.00 | 57 | 1007.6 |
| 20260505225932 | 22 | 148 | 0.0 | 4.8 | 0.00 | 0.00 | 0.00 | 56 | 1007.6 |
| 20260505224930 | 22 | 150 | 1.6 | 4.8 | 0.00 | 0.00 | 0.00 | 55 | 1007.5 |
| 20260505223916 | 22 | 150 | 1.6 | 8.0 | 0.00 | 0.00 | 0.00 | 55 | 1007.4 |
| 20260505222934 | 23 | 149 | 1.6 | 8.0 | 0.00 | 0.00 | 0.00 | 53 | 1007.4 |
| 20260505221909 | 23 | 108 | 1.6 | 6.4 | 0.00 | 0.00 | 0.00 | 53 | 1007.2 |
| 20260505220838 | 23 | 143 | 0.0 | 6.4 | 0.00 | 0.00 | 0.00 | 52 | 1007.6 |
| 20260505215853 | 23 | 277 | 0.0 | 8.0 | 0.00 | 0.00 | 0.00 | 52 | 1007.5 |
| 20260505214906 | 24 | 139 | 1.6 | 8.0 | 0.00 | 0.00 | 0.00 | 52 | 1007.4 |
| 20260505213905 | 25 | 131 | 1.6 | 4.8 | 0.00 | 0.00 | 0.00 | 51 | 1007.3 |
| 20260505212857 | 25 | 265 | 1.6 | 8.0 | 0.00 | 0.00 | 0.00 | 51 | 1007.2 |
| 20260505210735 | 26 | 8 | 1.6 | 8.0 | 0.00 | 0.00 | 0.00 | 49 | 1006.9 |
| 20260505205726 | 26 | 137 | 1.6 | 9.7 | 0.00 | 0.00 | 0.00 | 49 | 1006.9 |
| 20260505204715 | 26 | 142 | 1.6 | 9.7 | 0.00 | 0.00 | 0.00 | 48 | 1006.9 |
| 20260505202554 | 26 | 119 | 1.6 | 11.3 | 0.00 | 0.00 | 0.00 | 49 | 1007.2 |
| 20260505201613 | 26 | 262 | 3.2 | 11.3 | 0.00 | 0.00 | 0.00 | 50 | 1007.3 |
| 20260505200548 | 26 | 134 | 1.6 | 9.7 | 0.00 | 0.00 | 0.00 | 48 | 1007.4 |
| 20260505195515 | 26 | 124 | 1.6 | 8.0 | 0.00 | 0.00 | 0.00 | 48 | 1007.4 |
| 20260505194508 | 26 | 243 | 3.2 | 8.0 | 0.00 | 0.00 | 0.00 | 47 | 1007.6 |
| 20260505193501 | 27 | 136 | 1.6 | 6.4 | 0.00 | 0.00 | 0.00 | 46 | 1007.6 |
| 20260505192426 | 27 | 160 | 1.6 | 12.9 | 0.00 | 0.00 | 0.00 | 49 | 1007.6 |
| 20260505191433 | 27 | 146 | 1.6 | 12.9 | 0.00 | 0.00 | 0.00 | 45 | 1007.5 |
| 20260505190424 | 27 | 148 | 1.6 | 6.4 | 0.00 | 0.00 | 0.00 | 44 | 1007.7 |
| 20260505185426 | 27 | 110 | 1.6 | 9.7 | 0.00 | 0.00 | 0.00 | 45 | 1007.9 |
| 20260505184411 | 27 | 134 | 3.2 | 9.7 | 0.00 | 0.00 | 0.00 | 45 | 1008.0 |
| 20260505183430 | 26 | 127 | 3.2 | 11.3 | 0.00 | 0.00 | 0.00 | 46 | 1008.2 |
| 20260505181256 | 27 | 158 | 3.2 | 11.3 | 0.00 | 0.00 | 0.00 | 47 | 1008.4 |
| 20260505180243 | 27 | 266 | 3.2 | 11.3 | 0.00 | 0.00 | 0.00 | 46 | 1008.4 |
| 20260505175302 | 27 | 108 | 3.2 | 11.3 | 0.00 | 0.00 | 0.00 | 46 | 1008.3 |
| 20260505174243 | 27 | 117 | 1.6 | 9.7 | 0.00 | 0.00 | 0.00 | 46 | 1008.4 |
| 20260505172048 | 27 | 124 | 3.2 | 11.3 | 0.00 | 0.00 | 0.00 | 43 | 1008.4 |
| 20260505171108 | 27 | 113 | 3.2 | 8.0 | 0.00 | 0.00 | 0.00 | 44 | 1008.6 |
| 20260505170131 | 27 | 219 | 1.6 | 8.0 | 0.00 | 0.00 | 0.00 | 43 | 1008.6 |
| 20260505165115 | 27 | 139 | 1.6 | 8.0 | 0.00 | 0.00 | 0.00 | 45 | 1009.0 |
| 20260505164058 | 26 | 139 | 1.6 | 12.9 | 0.00 | 0.00 | 0.00 | 47 | 1009.1 |
| 20260505163111 | 26 | 127 | 1.6 | 12.9 | 0.00 | 0.00 | 0.00 | 46 | 1009.2 |
| 20260505162054 | 26 | 240 | 1.6 | 6.4 | 0.00 | 0.00 | 0.00 | 47 | 1009.5 |
| 20260505152810 | 25 | 118 | 1.6 | 6.4 | 0.00 | 0.00 | 0.00 | 52 | 1010.0 |
| 20260505150653 | 23 | 146 | 3.2 | 6.4 | 0.00 | 0.00 | 0.00 | 54 | 1010.3 |
| 20260505140617 | 20 | 96 | 0.0 | 6.4 | 0.00 | 0.00 | 0.00 | 66 | 1010.7 |
| 20260505124328 | 13 | 82 | 0.0 | 0.0 | 0.00 | 0.00 | 0.00 | 87 | 1010.0 |
| 20260505123310 | 13 | 87 | 0.0 | 1.6 | 0.00 | 0.00 | 0.00 | 86 | 1010.1 |